カタログに戻る

APSTAR 6E

運用中通信GEO
NORAD 55239·PAYLOAD·🇨🇳 China

打ち上げ Jan 12, 2023 から Xichang Satellite Launch Center

Loading…

TLE

最新Source: Space-Track

元期: Sep 14, 2026, 12:43 UTC

1 55239U 23005A   26257.53041538 -.00000325  00000-0  00000-0 0  9996
2 55239   0.0468 247.8877 0003750 318.4071 112.1878  1.00272185 19594

AllMySatでAPSTAR 6Eをリアルタイム追跡

Download on the App Store